Airfield :
LOGIN :

Register | Disclaimer

   EN    FR    IT 

 










Legend :    VFR   Marginal VFR   IFR   Intensive IFR   Very Intensive IFR
Visi :
Ceiling :
>= 8 km
>= 3000ft
5 to 8 km
1000 to 3000 ft
1500m to 5 km
500 to 1000 ft
800 to 1500m
200 to 500 ft
< 800m
< 200 ft
Symbols :   Thunderstorms  Fog  Heavy snow  Heavy precipitations  Wind > 20 kt
SIGMETs :     Misc.  Thunderstorms  Icing  Turbulence  Mountain Waves  Volcanic Ashes







- Airport Elevation : 187 ft


ETNW - Wunstorf AB

CURRENT METAR :
  • 202120Z 10014KT 9999 BKN009 02/M00 Q1015 GRN

EXPIRED METARs :
  • 202020Z 09016KT 9999 BKN009 02/M00 Q1014 GRN
  • 201919Z 09018KT 9999 BKN009 02/M00 Q1014 GRN

TAF TAF ETNW
Valid from the 20 at 18:00 until the 21 at 18:00 UTC


201715Z 2018/2118 09012G22KT 8000 NSW SCT010 BKN015
TEMPO 2018/2106 10015G25KT 4000 BR SCT006 BKN010
TEMPO 2106/2118 10012G22KT 8000 NSW BKN010 BY ETGL
No reported NOTAMs for that airfield.



MET'MAP, your aeronautical weather chart ! - Copyright ORBIFLY December 2007 - Disclaimer

ORBIFLY MET'MAP TEAM :

Programming & Development : Alexandra Zaïnal
Concept & Development : Baudouin d'Aumeries
Co-Development & Prog : Marc-Olivier Méhu
Technical & hardware support : Manuel Goepfert

Contact : metmap@orbifly.com




SOURCES & CREDITS :

   NOAA